This is the latest recevied weather packets stored in our database for station/object K2BIG. If no packets are shown the sender has not sent any weather packets the latest 10 day(s).
| Time | Temp. | Humidity | Pressure | Rain* | Wind** | Luminosity | Snow |
|---|---|---|---|---|---|---|---|
| 1777977316 | 10.56° C | 87% | 1010.1 hPa | 0 mm | - | - | - |
| 1777977016 | 9.44° C | 89% | 1010 hPa | 0 mm | - | - | - |
| 1777976715 | 8.89° C | 91% | 1009.9 hPa | 0 mm | - | - | - |
| 1777976416 | 8.89° C | 92% | 1009.9 hPa | 0 mm | - | - | - |
| 1777976116 | 8.33° C | 92% | 1009.8 hPa | 0 mm | - | - | - |
| 1777975815 | 7.78° C | 92% | 1009.6 hPa | 0 mm | - | - | - |
| 1777975515 | 7.78° C | 92% | 1009.6 hPa | 0 mm | - | - | - |
| 1777975216 | 7.78° C | 91% | 1009.5 hPa | 0 mm | - | - | - |
| 1777974915 | 7.78° C | 91% | 1009.5 hPa | 0 mm | - | - | - |
| 1777974615 | 7.78° C | 91% | 1009.5 hPa | 0 mm | - | - | - |
| 1777974315 | 7.78° C | 91% | 1009.3 hPa | 0 mm | - | - | - |
| 1777974016 | 7.78° C | 91% | 1009.2 hPa | 0 mm | - | - | - |
| 1777973715 | 7.78° C | 90% | 1009.2 hPa | 0 mm | - | - | - |
| 1777973415 | 7.78° C | 90% | 1009.3 hPa | 0 mm | - | - | - |
| 1777973115 | 7.78° C | 90% | 1009.2 hPa | 0 mm | - | - | - |
| 1777972815 | 7.78° C | 90% | 1008.9 hPa | 0 mm | - | - | - |
| 1777972515 | 7.78° C | 89% | 1009 hPa | 0 mm | - | - | - |
| 1777972215 | 7.78° C | 89% | 1008.9 hPa | 0 mm | - | - | - |
| 1777971915 | 7.78° C | 89% | 1008.9 hPa | 0 mm | - | - | - |
| 1777971615 | 7.78° C | 89% | 1008.9 hPa | 0 mm | - | - | - |
| 1777971315 | 7.78° C | 89% | 1008.9 hPa | 0 mm | - | - | - |
| 1777971015 | 7.78° C | 89% | 1008.9 hPa | 0 mm | - | - | - |
| 1777970715 | 8.33° C | 89% | 1008.9 hPa | 0 mm | - | - | - |
| 1777970415 | 8.33° C | 89% | 1009 hPa | 0 mm | - | - | - |
| 1777970115 | 8.33° C | 89% | 1009.1 hPa | 0 mm | - | - | - |
* Rain latest hour (hover to see other rain measurements)
** Current wind speed in m/s (hover to see current wind gust speed)